TimeIST,TemperatureF,Dew PointF,Humidity,Sea Level PressureIn,VisibilityMPH,Wind Direction,Wind SpeedMPH,Gust SpeedMPH,PrecipitationIn,Events,Conditions,WindDirDegrees,DateUTC
12:10 AM,53.6,41.0,62,30.06,2.5,Calm,Calm,-,N/A,,Haze,0,2013-01-18 18:40:00
12:40 AM,51.8,41.0,67,30.06,2.5,Calm,Calm,-,N/A,,Haze,0,2013-01-18 19:10:00
1:10 AM,51.8,41.0,67,30.06,2.5,Calm,Calm,-,N/A,,Haze,0,2013-01-18 19:40:00
1:40 AM,50.0,41.0,71,30.06,2.5,Calm,Calm,-,N/A,,Haze,0,2013-01-18 20:10:00
2:10 AM,48.2,42.8,82,30.09,2.5,Calm,Calm,-,N/A,,Haze,0,2013-01-18 20:40:00
2:30 AM,55,45,59,30.11,2,North,3.5,,,,Haze,0,2013-01-18 21:00:00
2:40 AM,48.2,42.8,82,30.06,2.5,Calm,Calm,-,N/A,,Haze,0,2013-01-18 21:10:00
3:10 AM,48.2,42.8,82,30.06,2.5,Calm,Calm,-,N/A,,Haze,0,2013-01-18 21:40:00
3:40 AM,50.0,41.0,71,30.09,2.5,ENE,5.8,-,N/A,,Haze,60,2013-01-18 22:10:00
4:10 AM,50.0,39.2,66,30.09,2.5,ENE,6.9,-,N/A,,Haze,60,2013-01-18 22:40:00
4:40 AM,48.2,39.2,71,30.06,2.5,NE,5.8,-,N/A,,Haze,50,2013-01-18 23:10:00
5:10 AM,48.2,39.2,71,30.06,2.5,NE,6.9,-,N/A,,Haze,50,2013-01-18 23:40:00
5:30 AM,52,42,58,30.11,2,NE,6.9,,,,Haze,50,2013-01-19 00:00:00
5:40 AM,48.2,39.2,71,30.09,2.5,NE,5.8,-,N/A,,Haze,40,2013-01-19 00:10:00
6:10 AM,46.4,39.2,76,30.09,2.5,NE,5.8,-,N/A,,Haze,50,2013-01-19 00:40:00
6:40 AM,46.4,37.4,71,30.12,2.5,NE,6.9,-,N/A,,Haze,50,2013-01-19 01:10:00
7:10 AM,48.2,37.4,66,30.12,2.2,ENE,6.9,-,N/A,,Haze,60,2013-01-19 01:40:00
8:10 AM,51.8,37.4,58,30.15,1.9,ENE,6.9,-,N/A,,Haze,60,2013-01-19 02:40:00
8:30 AM,55,41,47,30.17,1,NW,5.8,,,,Haze,320,2013-01-19 03:00:00
8:40 AM,53.6,37.4,54,30.15,1.9,ENE,9.2,-,N/A,,Haze,70,2013-01-19 03:10:00
9:10 AM,55.4,39.2,54,30.18,2.5,ENE,9.2,-,N/A,,Haze,70,2013-01-19 03:40:00
10:10 AM,60.8,39.2,45,30.18,3.7,East,9.2,-,N/A,,Unknown,80,2013-01-19 04:40:00
10:40 AM,64.4,39.2,40,30.18,3.7,East,9.2,-,N/A,,Unknown,80,2013-01-19 05:10:00
11:10 AM,66.2,39.2,37,30.18,3.7,East,9.2,-,N/A,,Unknown,80,2013-01-19 05:40:00
11:30 AM,68,42,28,30.18,2,ESE,6.9,,,,,110,2013-01-19 06:00:00
11:40 AM,69.8,39.2,33,30.15,3.7,East,9.2,-,N/A,,Unknown,80,2013-01-19 06:10:00
12:10 PM,69.8,39.2,33,30.12,3.7,East,10.4,-,N/A,,Unknown,80,2013-01-19 06:40:00
12:40 PM,71.6,39.2,31,30.09,3.7,East,9.2,-,N/A,,Unknown,80,2013-01-19 07:10:00
1:10 PM,71.6,39.2,31,30.06,3.7,East,9.2,-,N/A,,Unknown,80,2013-01-19 07:40:00
1:40 PM,71.6,39.2,31,30.04,3.7,East,8.1,-,N/A,,Unknown,80,2013-01-19 08:10:00
2:10 PM,73.4,37.4,27,30.04,3.7,East,8.1,-,N/A,,Unknown,80,2013-01-19 08:40:00
2:30 PM,73,40,20,30.06,2,ENE,6.9,,,,,70,2013-01-19 09:00:00
2:40 PM,73.4,37.4,27,30.01,3.7,ENE,8.1,-,N/A,,Unknown,60,2013-01-19 09:10:00
3:10 PM,73.4,39.2,29,30.01,3.7,ENE,9.2,-,N/A,,Unknown,60,2013-01-19 09:40:00
3:40 PM,73.4,37.4,27,30.01,3.7,ENE,8.1,-,N/A,,Unknown,70,2013-01-19 10:10:00
4:10 PM,73.4,37.4,27,30.01,3.7,East,5.8,-,N/A,,Unknown,80,2013-01-19 10:40:00
4:40 PM,73.4,35.6,25,30.01,3.7,ENE,6.9,-,N/A,,Unknown,60,2013-01-19 11:10:00
5:10 PM,73.4,37.4,27,30.01,3.7,ENE,6.9,-,N/A,,Unknown,60,2013-01-19 11:40:00
5:30 PM,72,39,20,30.05,2,North,5.8,,,,Scattered Clouds,0,2013-01-19 12:00:00
6:40 PM,66.2,37.4,35,30.04,2.5,NE,4.6,-,N/A,,Smoke,50,2013-01-19 13:10:00
7:10 PM,64.4,37.4,37,30.04,2.5,NE,3.5,-,N/A,,Smoke,50,2013-01-19 13:40:00
7:40 PM,62.6,39.2,42,30.06,2.5,NE,4.6,-,N/A,,Smoke,50,2013-01-19 14:10:00
8:10 PM,62.6,37.4,39,30.06,2.5,NE,4.6,-,N/A,,Smoke,40,2013-01-19 14:40:00
8:30 PM,60,45,48,30.10,2,Calm,Calm,,,,Haze,,2013-01-19 15:00:00
8:40 PM,59.0,39.2,48,30.09,2.5,NNE,3.5,-,N/A,,Smoke,20,2013-01-19 15:10:00
9:10 PM,57.2,41.0,55,30.09,2.5,NNE,3.5,-,N/A,,Smoke,20,2013-01-19 15:40:00
9:40 PM,55.4,41.0,58,30.09,2.5,NE,3.5,-,N/A,,Smoke,40,2013-01-19 16:10:00
10:10 PM,55.4,42.8,63,30.09,2.5,NNE,2.3,-,N/A,,Smoke,20,2013-01-19 16:40:00
10:40 PM,55.4,42.8,63,30.09,2.5,NNE,3.5,-,N/A,,Haze,30,2013-01-19 17:10:00
11:30 PM,62,42,37,30.12,2,North,4.6,,,,Haze,0,2013-01-19 18:00:00